Location: Aiyekoto
(8.4333°N, 4.3667°E)
Time: 04:08:52
(UTC+00:00)

Aurora 2 Rocket - Visible Passes

Search period start: 23 September 2020 00:00
Search period end: 03 October 2020 00:00
Orbit: 390 x 1743 km, 25.0° (Epoch: 22 September)

Date Brightness Start Highest point End Pass type
(mag) Time Alt. Az. Time Alt. Az. Time Alt. Az.
23 Sep 2.4 04:49:56 14° WSW 04:53:08 85° NNW 04:58:21 10° ENE visible
23 Sep 6.4 18:17:58 10° SW 18:19:41 11° SSW 18:21:20 10° SSW visible
24 Sep 2.9 03:54:34 47° ESE 03:54:34 47° ESE 03:58:09 10° ENE visible
25 Sep 2.9 04:45:40 19° W 04:47:56 41° NNW 04:52:20 10° NE visible
26 Sep 3.5 03:50:15 32° NE 03:50:15 32° NE 03:52:35 10° ENE visible
27 Sep 3.7 04:41:17 16° NW 04:42:54 22° NNW 04:46:08 10° NE visible
28 Sep 4.5 03:45:49 16° NE 03:45:49 16° NE 03:46:46 10° NE visible
29 Sep 4.2 04:36:48 11° NNW 04:37:56 12° N 04:39:30 10° NNE visible
